This demonstration page uses our WeatherBlox Daily Observations layout. Learn more.

Left ArrowRight Arrow

Hourly Observations for June 7, 2020

Temp ( °F °C ) Dew Point ( °F °C ) Humidity (%) Winds ( mph kmh ) Pressure ( in mb ) Visibility ( mi km ) Precip ( " mm )
12:53 am 00:53 Clear 81 27.2 52 11.1 37 37 SE 14 22 29.70 1006 10 16 0.00 0.00
1:53 am 01:53 Clear 79 26.1 53 11.7 41 41 SE 15 24 29.68 1005 10 16 0.00 0.00
2:53 am 02:53 Clear 78 25.6 54 12.2 43 43 SE 13 20 29.68 1005 10 16 0.00 0.00
3:53 am 03:53 Clear 77 25 56 13.3 48 48 SSE 16 26 29.66 1005 10 16 0.00 0.00
4:53 am 04:53 Clear 75 23.9 57 13.9 54 54 SE 14 22 29.67 1005 10 16 0.00 0.00
5:53 am 05:53 Clear 75 23.9 58 14.4 55 55 ESE 15 24 29.67 1005 10 16 0.00 0.00
6:53 am 06:53 Sunny 74 23.3 59 15 60 60 SE 15 24 29.68 1005 10 16 0.00 0.00
7:53 am 07:53 Sunny 76 24.4 60 15.6 58 58 SE 17 28 29.69 1005 10 16 0.00 0.00
8:53 am 08:53 undefined 79 26.1 60 15.6 52 52 undefined N/A 29.70 1006 N/A 0.00 0.00
9:53 am 09:53 Sunny 83 28.3 59 15 44 44 SE 22 35 29.69 1005 10 16 0.00 0.00
10:53 am 10:53 Sunny 88 31.1 58 14.4 36 36 SSE 16 26 29.67 1005 10 16 0.00 0.00
11:53 am 11:53 Sunny 91 32.8 56 13.3 31 31 SSE 15 24 29.66 1005 10 16 0.00 0.00
12:53 pm 12:53 Sunny 95 35 55 12.8 26 26 SSE 13 20 29.64 1004 10 16 0.00 0.00
1:53 pm 13:53 Sunny 97 36.1 54 12.2 24 24 SSE 9 15 29.62 1003 10 16 0.00 0.00
2:53 pm 14:53 Sunny 99 37.2 54 12.2 22 22 S 9 15 29.59 1002 10 16 0.00 0.00
3:53 pm 15:53 Sunny 101 38.3 54 12.2 21 21 ESE 14 22 29.56 1001 10 16 0.00 0.00
4:53 pm 16:53 Sunny 101 38.3 54 12.2 21 21 ESE 7 11 29.54 1000 10 16 0.00 0.00
5:53 pm 17:53 Sunny 101 38.3 55 12.8 22 22 ESE 12 19 29.52 1000 10 16 0.00 0.00
6:53 pm 18:53 Sunny 101 38.3 54 12.2 21 21 ESE 17 28 29.50 999 10 16 0.00 0.00
7:53 pm 19:53 Sunny 98 36.7 53 11.7 22 22 SE 17 28 29.51 999 10 16 0.00 0.00
8:53 pm 20:53 Sunny 95 35 53 11.7 24 24 SE 17 28 29.52 1000 10 16 0.00 0.00
9:53 pm 21:53 Clear 92 33.3 53 11.7 27 27 SSE 20 31 29.53 1000 10 16 0.00 0.00
10:53 pm 22:53 Clear 89 31.7 52 11.1 28 28 SSE 12 19 29.55 1001 10 16 0.00 0.00
11:53 pm 23:53 Clear 87 30.6 51 10.6 29 29 SSE 13 20 29.57 1002 10 16 0.00 0.00

Powered by AerisWeather